Regional Weather Roundup
Issued by NWS

Home | Current Version | Previous Version | Text Only | Print | Product List | Glossary On
Versions: 1 2 3 4 5 6 7 8 9 10 11 12 13 14 15 16 17 18 19 20 21 22 23 24 25 26 27
000
ASPQ40 PGUM 310610
RWRPQ
WEATHER ROUNDUP FOR THE MARIANAS AND MICRONESIA
NATIONAL WEATHER SERVICE TIYAN GU
400 PM CHST SAT JUL 31 2021

GUZ001>004-310700-
MARIANA ISLANDS-

CITY           SKY/WX    TMP DP  RH WIND       PRES   REMARKS
GUAM AIRPORT   NOT AVBL
ANDERSEN AFB   PTSUNNY   81  77  89 NW9       29.77S
ROTA AIRPORT   PTSUNNY   81  75  83 W12       29.73F
TINIAN AP      MOSUNNY   86  75  70 N8        29.74F HX  95
SAIPAN AP      MOSUNNY   86  77  74 NW8       29.75F HX  97

$$

PMZ161-310700-
REPUBLIC OF PALAU-

CITY           SKY/WX    TMP DP  RH WIND       PRES   REMARKS
KOROR AP       PTSUNNY   86  77  74 W13       29.77F HX  97
KOROR WSO      NOT AVBL

$$

PMZ171>174-310700-
FEDERATED STATES OF MICRONESIA-

CITY           SKY/WX    TMP DP  RH WIND       PRES   REMARKS
YAP AIRPORT    CLOUDY    79  77  94 W14       29.80R
CHUUK AP       PTSUNNY   90  81  74 VRB6      29.78S HX 108
POHNPEI AP     NOT AVBL
POHNPEI WSO    PTSUNNY   82  77  83 SE6       29.84S HX  91
KOSRAE AP      NOT AVBL

$$

PMZ181-310700-
REPUBLIC OF THE MARSHALL ISLANDS-

CITY           SKY/WX    TMP DP  RH WIND       PRES   REMARKS
KWAJALEIN AP   SUNNY     86  75  70 NE10      29.83R HX  95
MAJURO AP      NOT AVBL
MAJURO WSO     LGT RAIN  81  77  89 SE3       29.82R

$$




USA.gov is the U.S. government's official web portal to all federal, state and local government web resources and services.